Tracking 18942 objects as of 18-Jan-2018
HD Live streaming from Space Station
objects crossing your sky now

FENGYUN 1C DEB

Track FENGYUN 1C DEB now!
10-day predictions


NORAD ID: 31533
Int'l Code: 1999-025BXY
Perigee: 771.1 km
Apogee: 869.2 km
Inclination: 99.0 °
Period: 101.1 minutes
Semi major axis: 7191 km
RCS: 0.0093 m2 (small)
Launch date: May 10, 1999
Source: People's Republic of China (PRC)
Launch site: Taiyaun Space Center, China (TSC)

Note: This is SATELLITE DEBRIS
aabbcc
Your satellite tracking list
Your tracking list is empty




NASA's NSSDC Master Catalog

Two Line Element Set (TLE):
1 31533U 99025BXY 18018.14324726  .00000121  00000-0  71557-4 0  9990
2 31533  98.9636 146.2532 0068176   4.1130 356.0593 14.23658638560387
Source of the keplerian elements: AFSPC